Change the Weather History Date:

Tuesday, July 16, 2013

  Actual Average Record
Temperature  
Mean Temperature 56 °F -  
Max Temperature 61 °F 61 °F 66 °F (2003)
Min Temperature 51 °F 49 °F 48 °F (1996)
Degree Days  
Heating Degree Days 10    
Growing Degree Days 6 (Base 50)    
Moisture  
Dew Point 51 °F    
Average Humidity 87    
Maximum Humidity 97    
Minimum Humidity 72    
Precipitation  
Precipitation 0.00 in - - ()
Sea Level Pressure  
Sea Level Pressure 29.96 in    
Wind  
Wind Speed 7 mph (North)    
Max Wind Speed 15 mph    
Max Gust Speed 20 mph    
Visibility 9 miles    
Events      
Averages and records for this station are not official NWS values.
T = Trace of Precipitation, MM = Missing Value Source: NWS Daily Summary

Daily Weather History Graph

Daily Weather History Graph

Search for Another Location

Airport or City:

Trip Planner

Search our weather history database for the weather conditions in past years. The results will help you decide how hot, cold, wet, or windy it might be!

Date:

Astronomy

Jul. 16, 2013 Rise Set
Actual Time 5:58 AM PDT 8:46 PM PDT
Civil Twilight 5:25 AM PDT 9:18 PM PDT
Nautical Twilight 4:45 AM PDT 9:59 PM PDT
Astronomical Twilight 3:58 AM PDT 10:45 PM PDT
Moon 2:33 PM PDT (7/16) 12:32 AM PDT (7/16)
Length of Visible Light 15h 52m
Length of Day
14h 47m
First Quarter, 57% of the Moon is Illuminated
Jul 16
First Quarter
Jul 22
Full
Jul 29
Last Quarter
Aug 6
New
Aug 14
First Quarter

Hourly Weather History & Observations

Time (PDT) Temp. Dew Point Humidity Pressure Visibility Wind Dir Wind Speed Gust Speed Precip Events Conditions
12:53 AM 52.0 °F 50.0 °F 93% 29.88 in 10.0 mi South 8.1 mph - N/A   Overcast
1:53 AM 51.1 °F 50.0 °F 96% 29.87 in 10.0 mi South 6.9 mph - N/A   Overcast
2:53 AM 52.0 °F 48.9 °F 89% 29.86 in 10.0 mi SE 5.8 mph - N/A   Overcast
3:53 AM 52.0 °F 50.0 °F 93% 29.86 in 10.0 mi SE 4.6 mph - N/A   Overcast
4:53 AM 52.0 °F 50.0 °F 93% 29.86 in 10.0 mi Calm Calm - N/A   Overcast
5:53 AM 52.0 °F 50.0 °F 93% 29.87 in 10.0 mi ESE 3.5 mph - N/A   Overcast
6:53 AM 52.0 °F 50.0 °F 93% 29.88 in 6.0 mi Calm Calm - N/A   Overcast
7:53 AM 52.0 °F 51.1 °F 97% 29.90 in 5.0 mi ENE 3.5 mph - N/A   Overcast
8:26 AM 53.6 °F 51.8 °F 94% 29.89 in 2.5 mi NE 3.5 mph - N/A   Overcast
8:42 AM 53.6 °F 51.8 °F 94% 29.89 in 4.0 mi NE 3.5 mph - N/A   Overcast
8:53 AM 54.0 °F 52.0 °F 93% 29.91 in 6.0 mi NNE 4.6 mph - N/A   Overcast
9:53 AM 54.0 °F 51.1 °F 90% 29.92 in 7.0 mi North 10.4 mph - N/A   Overcast
10:53 AM 54.0 °F 51.1 °F 90% 29.95 in 9.0 mi NNW 10.4 mph - N/A   Overcast
11:53 AM 55.0 °F 51.1 °F 86% 29.96 in 10.0 mi NNW 8.1 mph - N/A   Overcast
12:34 PM 55.4 °F 50.0 °F 82% 29.95 in 10.0 mi NNW 11.5 mph - N/A   Overcast
12:53 PM 55.9 °F 50.0 °F 80% 29.98 in 10.0 mi NNW 10.4 mph - N/A   Overcast
1:53 PM 57.0 °F 50.0 °F 77% 29.99 in 10.0 mi NNW 12.7 mph - N/A   Overcast
2:31 PM 59.0 °F 50.0 °F 72% 29.98 in 10.0 mi North 12.7 mph - N/A   Overcast
2:53 PM 59.0 °F 50.0 °F 72% 30.00 in 10.0 mi North 15.0 mph - N/A   Overcast
3:42 PM 57.2 °F 50.0 °F 77% 29.98 in 10.0 mi NNW 13.8 mph - N/A   Overcast
3:53 PM 57.9 °F 51.1 °F 78% 30.00 in 10.0 mi North 13.8 mph - N/A   Overcast
4:53 PM 60.1 °F 51.1 °F 72% 30.01 in 10.0 mi North 8.1 mph - N/A   Mostly Cloudy
5:07 PM 60.8 °F 51.8 °F 72% 29.99 in 10.0 mi NNW 13.8 mph - N/A   Partly Cloudy
5:41 PM 55.4 °F 51.8 °F 88% 30.00 in 10.0 mi NNW 15.0 mph - N/A   Scattered Clouds
5:50 PM 55.4 °F 51.8 °F 88% 30.00 in 10.0 mi NNW 11.5 mph 19.6 mph N/A   Mostly Cloudy
5:53 PM 55.0 °F 51.1 °F 86% 30.01 in 10.0 mi NNW 10.4 mph - N/A   Mostly Cloudy
6:53 PM 54.0 °F 51.1 °F 90% 30.03 in 10.0 mi NNW 8.1 mph - N/A   Overcast
7:53 PM 55.0 °F 51.1 °F 86% 30.04 in 10.0 mi North 6.9 mph - N/A   Overcast
8:53 PM 55.0 °F 51.1 °F 86% 30.05 in 10.0 mi NNW 3.5 mph - N/A   Overcast
9:53 PM 55.0 °F 52.0 °F 89% 30.06 in 10.0 mi North 4.6 mph - N/A   Overcast
10:53 PM 54.0 °F 52.0 °F 93% 30.08 in 10.0 mi WNW 4.6 mph - N/A   Overcast
11:53 PM 53.1 °F 52.0 °F 96% 30.08 in 8.0 mi Calm Calm - N/A   Overcast